TimeCDT,TemperatureF,Dew PointF,Humidity,Sea Level PressureIn,VisibilityMPH,Wind Direction,Wind SpeedMPH,Gust SpeedMPH,PrecipitationIn,Events,Conditions,WindDirDegrees,DateUTC
12:53 AM,28.0,21.0,75,30.31,10.0,Calm,Calm,-,N/A,,Clear,0,2013-03-28 05:53:00
1:53 AM,27.0,19.9,75,30.31,10.0,Calm,Calm,-,N/A,,Clear,0,2013-03-28 06:53:00
2:53 AM,26.1,21.0,81,30.30,10.0,Calm,Calm,-,N/A,,Clear,0,2013-03-28 07:53:00
3:53 AM,28.0,21.0,75,30.30,10.0,Calm,Calm,-,N/A,,Clear,0,2013-03-28 08:53:00
4:53 AM,25.0,19.9,81,30.31,10.0,Calm,Calm,-,N/A,,Clear,0,2013-03-28 09:53:00
5:53 AM,25.0,21.0,85,30.32,10.0,Calm,Calm,-,N/A,,Mostly Cloudy,0,2013-03-28 10:53:00
6:53 AM,25.0,21.0,85,30.35,10.0,Calm,Calm,-,N/A,,Clear,0,2013-03-28 11:53:00
7:53 AM,30.0,26.1,85,30.35,10.0,Calm,Calm,-,N/A,,Overcast,0,2013-03-28 12:53:00
8:53 AM,37.0,25.0,62,30.36,10.0,Calm,Calm,-,N/A,,Mostly Cloudy,0,2013-03-28 13:53:00
9:53 AM,42.1,24.1,49,30.37,10.0,North,10.4,-,N/A,,Unknown,10,2013-03-28 14:53:00
10:53 AM,44.1,25.0,47,30.37,10.0,Variable,5.8,-,N/A,,Clear,0,2013-03-28 15:53:00
11:53 AM,46.9,25.0,42,30.36,10.0,North,10.4,18.4,N/A,,Clear,360,2013-03-28 16:53:00
12:53 PM,48.9,23.0,36,30.34,10.0,NW,10.4,19.6,N/A,,Clear,310,2013-03-28 17:53:00
1:53 PM,51.1,25.0,36,30.32,10.0,NNW,10.4,18.4,N/A,,Clear,340,2013-03-28 18:53:00
2:53 PM,52.0,24.1,34,30.30,10.0,NNW,10.4,18.4,N/A,,Clear,340,2013-03-28 19:53:00
3:53 PM,52.0,21.0,30,30.28,10.0,NNW,12.7,19.6,N/A,,Clear,330,2013-03-28 20:53:00
4:53 PM,52.0,21.0,30,30.28,10.0,NW,11.5,-,N/A,,Clear,310,2013-03-28 21:53:00
5:53 PM,51.1,16.0,25,30.29,10.0,WNW,10.4,-,N/A,,Clear,300,2013-03-28 22:53:00
6:53 PM,48.0,18.0,30,30.30,10.0,NNW,5.8,-,N/A,,Clear,340,2013-03-28 23:53:00
7:53 PM,45.0,19.0,36,30.31,10.0,Calm,Calm,-,N/A,,Clear,0,2013-03-29 00:53:00
8:53 PM,44.1,19.0,37,30.32,10.0,Calm,Calm,-,N/A,,Clear,0,2013-03-29 01:53:00
9:53 PM,37.9,21.0,51,30.33,10.0,Calm,Calm,-,N/A,,Clear,0,2013-03-29 02:53:00
10:53 PM,35.1,21.9,59,30.32,10.0,Calm,Calm,-,N/A,,Clear,0,2013-03-29 03:53:00
11:53 PM,35.1,21.9,59,30.32,10.0,Calm,Calm,-,N/A,,Clear,0,2013-03-29 04:53:00